• In Österreich
  • Länderverzeichnis
  • Für 7 Tage
  • Wassertemperatur
  • Satellitenkarten
  • Wetterkarte
  • News
  • Widgets
  • user-avatar
    Anmelden

    Stündliche Wetter Sölden

    Heute, 11 Dezember, Montag

    Zeit Temperatur Niederschläge Wind Luftdruck Luftfeuchtigkeit
    00:00 -12°C° 0,3 mm 3 m/S 566 mmHg 89%
    01:00 -10°C° 0,3 mm 3 m/S 566 mmHg 89%
    02:00 -10°C° 0,3 mm 3 m/S 566 mmHg 90%
    03:00 -9°C° 0,3 mm 3 m/S 566 mmHg 91%
    04:00 -9°C° 0,3 mm 3 m/S 566 mmHg 91%
    05:00 -8°C° 0,4 mm 3 m/S 566 mmHg 91%
    06:00 -8°C° 0,4 mm 3 m/S 566 mmHg 92%
    07:00 -7°C° 0,4 mm 3 m/S 565 mmHg 92%
    08:00 -7°C° 0,7 mm 4 m/S 565 mmHg 92%
    09:00 -7°C° 0,7 mm 4 m/S 565 mmHg 91%
    10:00 -5°C° 0,7 mm 4 m/S 565 mmHg 91%
    11:00 -5°C° 0,9 mm 4 m/S 565 mmHg 91%
    12:00 -4°C° 0,9 mm 4 m/S 565 mmHg 91%
    13:00 -4°C° 0,9 mm 4 m/S 565 mmHg 92%
    14:00 -4°C° 1,2 mm 4 m/S 565 mmHg 92%
    15:00 -4°C° 1,2 mm 4 m/S 565 mmHg 93%
    16:00 -4°C° 1,2 mm 4 m/S 565 mmHg 94%
    17:00 -4°C° 2,4 mm 4 m/S 565 mmHg 94%
    18:00 -4°C° 2,4 mm 4 m/S 565 mmHg 95%
    19:00 -5°C° 2,4 mm 3 m/S 565 mmHg 95%
    20:00 -5°C° 3,3 mm 3 m/S 566 mmHg 95%
    21:00 -5°C° 3,3 mm 3 m/S 566 mmHg 95%
    22:00 -5°C° 3,3 mm 3 m/S 566 mmHg 95%
    23:00 -5°C° 3,7 mm 3 m/S 567 mmHg 96%

    Morgen, 12 Dezember, Dienstag

    Zeit Temperatur Niederschläge Wind Luftdruck Luftfeuchtigkeit
    00:00 -4°C° 3,7 mm 3 m/S 567 mmHg 96%
    01:00 -4°C° 3,7 mm 3 m/S 567 mmHg 96%
    02:00 -4°C° 2,6 mm 3 m/S 568 mmHg 96%
    03:00 -4°C° 2,6 mm 3 m/S 568 mmHg 96%
    04:00 -4°C° 2,6 mm 3 m/S 568 mmHg 97%
    05:00 -5°C° 1 mm 3 m/S 569 mmHg 97%
    06:00 -5°C° 1 mm 3 m/S 570 mmHg 97%
    07:00 -5°C° 1 mm 3 m/S 571 mmHg 97%
    08:00 -5°C° 0,6 mm 3 m/S 572 mmHg 96%
    09:00 -4°C° 0,6 mm 2 m/S 572 mmHg 96%
    10:00 -5°C° 0,6 mm 2 m/S 573 mmHg 95%
    11:00 -5°C° 0,4 mm 2 m/S 573 mmHg 94%
    12:00 -5°C° 0,4 mm 2 m/S 574 mmHg 93%
    13:00 -5°C° 0,4 mm 2 m/S 574 mmHg 92%
    14:00 -6°C° 0,3 mm 2 m/S 574 mmHg 93%
    15:00 -7°C° 0,3 mm 2 m/S 574 mmHg 93%
    16:00 -7°C° 0,3 mm 1 m/S 574 mmHg 94%
    17:00 -9°C° 0,2 mm 2 m/S 574 mmHg 93%
    18:00 -10°C° 0,2 mm 2 m/S 574 mmHg 93%
    19:00 -12°C° 0,2 mm 2 m/S 574 mmHg 93%
    20:00 -12°C° 0,1 mm 2 m/S 575 mmHg 92%
    21:00 -12°C° 0,1 mm 2 m/S 575 mmHg 91%
    22:00 -12°C° 0,1 mm 2 m/S 575 mmHg 90%
    23:00 -12°C° 0,1 mm 2 m/S 576 mmHg 90%

    übermorgen, 13 Dezember, Mittwoch

    Zeit Temperatur Niederschläge Wind Luftdruck Luftfeuchtigkeit
    00:00 -13°C° 0,1 mm 2 m/S 576 mmHg 89%
    01:00 -13°C° 0,1 mm 2 m/S 576 mmHg 89%
    02:00 -14°C° 0,1 mm 2 m/S 575 mmHg 88%
    03:00 -15°C° 0,1 mm 2 m/S 575 mmHg 88%
    04:00 -16°C° 0,1 mm 2 m/S 575 mmHg 87%
    05:00 -16°C° 0 mm 2 m/S 575 mmHg 85%
    06:00 -16°C° 0 mm 2 m/S 575 mmHg 84%
    07:00 -17°C° 0 mm 2 m/S 575 mmHg 82%
    08:00 -13°C° 0 mm 1 m/S 576 mmHg 80%
    09:00 -12°C° 0 mm 1 m/S 577 mmHg 77%
    10:00 -10°C° 0 mm 1 m/S 577 mmHg 75%
    11:00 -9°C° 0 mm 1 m/S 577 mmHg 73%
    12:00 -8°C° 0 mm 1 m/S 578 mmHg 72%
    13:00 -7°C° 0 mm 2 m/S 578 mmHg 71%
    14:00 -8°C° 0 mm 2 m/S 577 mmHg 76%
    15:00 -9°C° 0 mm 2 m/S 576 mmHg 80%
    16:00 -10°C° 0 mm 2 m/S 575 mmHg 85%
    17:00 -12°C° 0 mm 2 m/S 575 mmHg 85%
    18:00 -12°C° 0 mm 2 m/S 575 mmHg 85%
    19:00 -12°C° 0 mm 2 m/S 575 mmHg 85%
    20:00 -13°C° 0 mm 2 m/S 575 mmHg 83%
    21:00 -13°C° 0 mm 2 m/S 574 mmHg 80%
    22:00 -13°C° 0 mm 2 m/S 574 mmHg 78%
    23:00 -13°C° 0 mm 2 m/S 574 mmHg 76%

    14 Dezember, Donnerstag

    Zeit Temperatur Niederschläge Wind Luftdruck Luftfeuchtigkeit
    00:00 -13°C° 0 mm 2 m/S 574 mmHg 73%
    01:00 -13°C° 0 mm 2 m/S 574 mmHg 71%
    02:00 -13°C° 0 mm 2 m/S 573 mmHg 71%
    03:00 -13°C° 0 mm 2 m/S 573 mmHg 72%
    04:00 -13°C° 0 mm 2 m/S 573 mmHg 72%
    05:00 -12°C° 0,2 mm 2 m/S 573 mmHg 75%
    06:00 -10°C° 0,2 mm 2 m/S 573 mmHg 78%
    07:00 -10°C° 0,2 mm 2 m/S 573 mmHg 80%
    08:00 -9°C° 0,2 mm 2 m/S 574 mmHg 81%
    09:00 -8°C° 0,2 mm 2 m/S 574 mmHg 81%
    10:00 -7°C° 0,2 mm 2 m/S 574 mmHg 81%
    11:00 -7°C° 0,1 mm 2 m/S 574 mmHg 82%
    12:00 -6°C° 0,1 mm 2 m/S 574 mmHg 83%
    13:00 -6°C° 0,1 mm 3 m/S 574 mmHg 83%
    14:00 -6°C° 0 mm 3 m/S 573 mmHg 85%
    15:00 -7°C° 0 mm 3 m/S 573 mmHg 88%
    16:00 -7°C° 0 mm 3 m/S 572 mmHg 90%
    17:00 -8°C° 0 mm 3 m/S 571 mmHg 90%
    18:00 -8°C° 0 mm 3 m/S 571 mmHg 91%
    19:00 -9°C° 0 mm 3 m/S 570 mmHg 91%
    20:00 -9°C° 0 mm 3 m/S 570 mmHg 91%
    21:00 -9°C° 0 mm 3 m/S 570 mmHg 91%
    22:00 -8°C° 0 mm 3 m/S 570 mmHg 91%
    23:00 -8°C° 0 mm 3 m/S 569 mmHg 91%

    15 Dezember, Freitag

    Zeit Temperatur Niederschläge Wind Luftdruck Luftfeuchtigkeit
    00:00 -8°C° 0 mm 3 m/S 569 mmHg 91%
    01:00 -8°C° 0 mm 3 m/S 569 mmHg 91%
    02:00 -8°C° 0,2 mm 3 m/S 569 mmHg 92%
    03:00 -7°C° 0,2 mm 2 m/S 569 mmHg 93%
    04:00 -6°C° 0,2 mm 1 m/S 569 mmHg 94%
    05:00 -7°C° 0,3 mm 1 m/S 569 mmHg 94%
    06:00 -7°C° 0,3 mm 1 m/S 569 mmHg 94%
    07:00 -7°C° 0,3 mm 1 m/S 569 mmHg 94%
    08:00 -7°C° 0,4 mm 1 m/S 570 mmHg 93%
    09:00 -6°C° 0,4 mm 1 m/S 570 mmHg 92%
    10:00 -6°C° 0,4 mm 1 m/S 570 mmHg 91%
    11:00 -6°C° 0,5 mm 1 m/S 570 mmHg 90%
    12:00 -4°C° 0,5 mm 1 m/S 570 mmHg 90%
    13:00 -6°C° 0,5 mm 2 m/S 569 mmHg 89%
    14:00 -6°C° 0,8 mm 1 m/S 569 mmHg 90%
    15:00 -6°C° 0,8 mm 1 m/S 568 mmHg 92%
    16:00 -7°C° 0,8 mm 1 m/S 568 mmHg 93%
    17:00 -7°C° 0,3 mm 1 m/S 568 mmHg 93%
    18:00 -8°C° 0,3 mm 1 m/S 568 mmHg 93%
    19:00 -9°C° 0,3 mm 2 m/S 568 mmHg 92%
    20:00 -10°C° 0,4 mm 2 m/S 568 mmHg 92%
    21:00 -10°C° 0,4 mm 2 m/S 568 mmHg 91%
    22:00 -10°C° 0,4 mm 2 m/S 568 mmHg 91%
    23:00 -12°C° 0,2 mm 2 m/S 568 mmHg 89%

    16 Dezember, Samstag

    Zeit Temperatur Niederschläge Wind Luftdruck Luftfeuchtigkeit
    00:00 -12°C° 0,2 mm 2 m/S 567 mmHg 88%
    01:00 -14°C° 0,2 mm 3 m/S 567 mmHg 87%
    02:00 -14°C° 0,3 mm 3 m/S 567 mmHg 87%
    03:00 -15°C° 0,3 mm 3 m/S 567 mmHg 86%
    04:00 -15°C° 0,3 mm 3 m/S 567 mmHg 86%
    05:00 -15°C° 0,1 mm 3 m/S 567 mmHg 84%
    06:00 -15°C° 0,1 mm 3 m/S 567 mmHg 83%
    07:00 -15°C° 0,1 mm 3 m/S 568 mmHg 81%
    08:00 -15°C° 0,1 mm 3 m/S 568 mmHg 81%
    09:00 -15°C° 0,1 mm 3 m/S 569 mmHg 80%
    10:00 -14°C° 0,1 mm 3 m/S 570 mmHg 80%
    11:00 -13°C° 0,1 mm 3 m/S 570 mmHg 79%
    12:00 -13°C° 0,1 mm 3 m/S 571 mmHg 79%
    13:00 -12°C° 0,1 mm 3 m/S 571 mmHg 78%
    14:00 -13°C° 0,1 mm 3 m/S 571 mmHg 80%
    15:00 -13°C° 0,1 mm 3 m/S 571 mmHg 82%
    16:00 -14°C° 0,1 mm 3 m/S 572 mmHg 83%
    17:00 -14°C° 0,1 mm 3 m/S 572 mmHg 84%
    18:00 -15°C° 0,1 mm 3 m/S 572 mmHg 85%
    19:00 -16°C° 0,1 mm 3 m/S 572 mmHg 86%
    20:00 -17°C° 0 mm 3 m/S 572 mmHg 86%
    21:00 -16°C° 0 mm 2 m/S 572 mmHg 86%
    22:00 -17°C° 0 mm 2 m/S 572 mmHg 86%
    23:00 -18°C° 0 mm 2 m/S 572 mmHg 85%
    Mehr zeigen